Location: Avoca
(45.7167°N, 74.7000°W)
Time: 15:09:06
(UTC+00:00)

BlueWalker 3 - Pass Details

Date: 04 December 2022
Orbit: 499 x 517 km, 53.2° (Epoch: 01 February)

Event Time Altitude Azimuth Distance (km) Brightness Sun altitude
Rises 23:24:25 0° 300° (WNW) 2,627 6.4 -21.8°
Reaches altitude 10° 23:26:45 10° 309° (NW) 1,736 5.2 -22.2°
Enters shadow 23:29:31 32° 347° (NNW) 895 3.2 -22.6°
